Regional Weather Roundup
Issued by NWS

Home | Current Version | Previous Version | Graphics & Text | Print | Product List | Glossary On
Versions: 1 2 3 4 5 6 7 8 9 10 11 12 13 14 15 16 17 18 19 20 21 22 23 24 25 26 27 28 29 30 31 32 33 34 35 36 37 38 39 40 41 42 43 44 45 46 47 48 49 50
000
ASUS43 KTOP 250408
RWRKS

WEATHER ROUNDUP FOR KANSAS
NATIONAL WEATHER SERVICE GOODLAND KS
1100 PM CDT THU MAY 24 2018

NOTE:  "FAIR" INDICATES FEW OR NO CLOUDS BELOW 12,000 FEET WITH NO
SIGNIFICANT WEATHER AND/OR OBSTRUCTIONS TO VISIBILITY.

KSZ001>006-013>018-027>032-041>047-250500-
NORTHWEST KANSAS

CITY           SKY/WX    TMP DP  RH WIND       PRES   REMARKS
GOODLAND       CLEAR     65  48  54 S9        30.01R
HAYS           LGT RAIN  64  57  77 E15       29.99R
HILL CITY      CLOUDY    64  57  78 E18G30    29.94F
RUSSELL        TSTM      65  59  81 W30G54    30.04R
$$

KSZ061>065-074>080-084>089-250500-
SOUTHWEST KANSAS

CITY           SKY/WX    TMP DP  RH WIND       PRES   REMARKS
DODGE CITY     CLOUDY    78  61  55 S14       29.97R
ELKHART        CLEAR     70  57  63 SE7       29.98R
GARDEN CITY    CLOUDY    68  50  52 SE12      30.02R
GREAT BEND     CLOUDY    72  66  81 N10G26    30.00R
LIBERAL        CLEAR     74  64  71 SE10      29.99R
PRATT          CLEAR     73  64  71 SE6       29.98R
$$

KSZ066>073-081>083-090>101-250500-
SOUTHEAST KANSAS

CITY           SKY/WX    TMP DP  RH WIND       PRES   REMARKS
CHANUTE        CLOUDY    68  67  96 SE9       30.02F
COFFEYVILLE    CLOUDY    74  68  81 E6        30.01R
HUTCHINSON     CLEAR     73  64  73 SE14      29.97R
MEDICINE LODGE   N/A     73  67  81 SE7       29.96R
NEWTON         CLEAR     67  63  87 SE12      30.00R
PARSONS        CLOUDY    69  68  96 CALM      30.04R
WICHITA INTL   PTCLDY    73  65  75 SE8       29.97S
WICHITA JABRA  CLEAR     68  66  93 E6        29.99R
WICHITA MCCONL CLEAR     71  67  87 SE5       29.98S
WINFIELD       MOCLDY    72  66  81 SE7       30.00R
$$

KSZ007>012-019>026-033>040-048>060-102>105-250500-
NORTHEAST KANSAS

CITY           SKY/WX    TMP DP  RH WIND       PRES   REMARKS
CONCORDIA      CLEAR     72  66  81 S13       29.93R
EMPORIA        CLOUDY    68  66  93 S10       29.99S
LAWRENCE       CLOUDY    68  67  96 S3        29.99S
MANHATTAN      PTCLDY    71  65  81 S3        29.95F
MARYSVILLE     MOCLDY    70  63  78 S7        29.95F
OLATHE IND     CLOUDY    69  66  90 S7        30.01R
OLATHE EXE     LGT RAIN  67  66  97 S6        30.00S
SALINA         CLEAR     73  67  81 S9        29.95R
TOPEKA BILLARD CLOUDY    68  67  96 SE6       29.98F
TOPEKA FORBES  CLOUDY    69  67  93 SE7       29.98F
$$



USA.gov is the U.S. government's official web portal to all federal, state and local government web resources and services.